Hourly Data Report for November 06, 2017

All times are specified in Local Standard Time (LST). Add 1 hour to adjust for Daylight Saving Time where and when it is observed.

DAUPHIN
MANITOBA

51°06'03.000" N
100°03'09.000" W
304.50 m
5040689
71036
YDN

Download Data

Hourly Data (November 2017)
Hourly Data Report for November 6, 2017
Temp Definition
°C
Dew Point Temp Definition
°C
Rel Hum Definition
%
Wind Dir Definition
10's deg

Wind Spd Definition
km/h
Visibility Definition
km
Stn Press Definition
kPa
Hmdx Definition


Wind Chill Definition


Weather Definition


TIME
00:00 Legend Double Dagger -9.9 -12.7 80 27 30 16.1 98.06   -19 LegendNANA
01:00 Legend Double Dagger -9.5 -12.2 81 27 30 16.1 98.10   -19 LegendNANA
02:00 Legend Double Dagger -10.2 -13.0 80 27 32 16.1 98.08   -20 LegendNANA
03:00 Legend Double Dagger -9.7 -12.5 80 26 32 16.1 98.11   -19 LegendNANA
04:00 Legend Double Dagger -9.5 -12.3 80 26 22 16.1 98.14   -18 LegendNANA
05:00 Legend Double Dagger -9.7 -12.7 79 26 26 16.1 98.18   -19 LegendNANA
06:00 Legend Double Dagger -10.0 -12.9 79 26 26 16.1 98.22   -19 LegendNANA
07:00 Legend Double Dagger -9.3 -11.9 82 28 35 16.1 98.23   -19 LegendNANA
08:00 Legend Double Dagger -9.6 -12.0 83 28 26 16.1 98.35   -18 LegendNANA
09:00 Legend Double Dagger -8.8 -11.7 80 27 24 16.1 98.42   -17 Snow
10:00 Legend Double Dagger -8.6 -11.8 78 27 30 16.1 98.49   -18 LegendNANA
11:00 Legend Double Dagger -8.2 -11.2 79 28 30 16.1 98.57   -17 LegendNANA
12:00 Legend Double Dagger -7.9 -11.0 79 28 28 16.1 98.64   -17 LegendNANA
13:00 Legend Double Dagger -6.6 -10.4 75 27 21 16.1 98.67   -14 LegendNANA
14:00 Legend Double Dagger -6.7 -12.1 66 33 17 16.1 98.74   -13 Snow
15:00 Legend Double Dagger -6.2 -13.4 57 31 21 16.1 98.79   -13 LegendNANA
16:00 Legend Double Dagger -6.7 -12.6 63 28 21 16.1 98.85   -14 LegendNANA
17:00 Legend Double Dagger -9.3 -14.0 69 28 22 16.1 98.90   -17 LegendNANA
18:00 Legend Double Dagger -11.8 -15.6 74 28 15 16.1 98.99   -19 LegendNANA
19:00 Legend Double Dagger -12.6 -16.5 73 27 17 16.1 99.06   -20 LegendNANA
20:00 Legend Double Dagger -12.5 -16.6 72 27 22 16.1 99.09   -21 LegendNANA
21:00 Legend Double Dagger -12.8 -17.0 71 26 17 16.1 99.11   -21 LegendNANA
22:00 Legend Double Dagger -13.8 -17.5 74 25 15 16.1 99.12   -21 LegendNANA
23:00 Legend Double Dagger -13.8 -17.4 75 24 17 16.1 99.11   -22 LegendNANA

Notes on Data Quality.

Legend

  • E = Estimated
  • M = Missing
  • NA = Not Available
  • ‡ = Partner data that is not subject to review by the National Climate Archives
Date modified: